FW2270 Weather Reports


time (UTC)temp
F
wind
direction
speed
knots
gust
knots
rain 1hr
in
rain 24hr
in
rain mn
in
humidity
%
barometer
mb
20260506105415 53 309 0.0 0.0 0.00 0.00 0.00 95 1020.7
20260506104430 53 309 0.0 0.9 0.00 0.00 0.00 95 1020.5
20260506103423 53 309 0.0 0.0 0.00 0.00 0.00 95 1020.4
20260506102417 53 309 0.0 0.9 0.00 0.00 0.00 95 1020.4
20260506101413 53 309 0.0 0.0 0.00 0.00 0.00 95 1020.3
20260506100428 53 309 0.0 0.0 0.00 0.00 0.00 95 1020.4
20260506095420 53 309 0.0 0.9 0.00 0.00 0.00 95 1020.3
20260506094417 53 309 0.0 0.0 0.00 0.00 0.00 95 1020.3
20260506093430 53 309 0.0 0.0 0.00 0.00 0.00 95 1020.3
20260506092425 53 309 0.0 0.9 0.00 0.00 0.00 95 1020.4
20260506091418 53 309 0.0 0.9 0.00 0.00 0.00 95 1020.4
20260506090417 53 309 0.0 0.9 0.00 0.00 0.00 95 1020.5
20260506085429 53 309 0.0 0.0 0.00 0.00 0.00 95 1020.5
20260506084422 53 309 0.0 0.0 0.00 0.00 0.00 95 1020.4
20260506083420 53 309 0.0 0.0 0.00 0.00 0.00 95 1020.5
20260506082433 54 309 0.0 0.9 0.00 0.00 0.00 95 1020.4
20260506081426 54 309 0.0 0.0 0.00 0.00 0.00 95 1020.4
20260506080420 53 309 0.0 0.0 0.00 0.00 0.00 95 1020.4
20260506073422 53 296 0.0 0.9 0.00 0.03 0.00 95 1020.1
20260506072421 53 265 0.0 1.7 0.00 0.03 0.00 95 1020.0
20260506071435 53 306 0.9 1.7 0.00 0.03 0.00 95 1019.8
20260506070428 53 305 0.0 0.9 0.00 0.03 0.00 95 1019.8
20260506062424 53 299 0.0 0.9 0.00 0.16 0.03 95 1019.7
20260506061417 54 299 0.0 0.9 0.00 0.16 0.03 95 1019.6
20260506060415 54 299 0.0 1.7 0.00 0.16 0.03 95 1019.6
20260506050418 54 284 0.0 0.9 0.00 0.18 0.03 95 1019.3
20260506044425 54 291 0.0 1.7 0.00 0.21 0.03 94 1019.0
20260506043418 54 277 0.0 1.7 0.00 0.21 0.03 94 1018.9
20260506042431 54 285 0.0 1.7 0.00 0.21 0.03 94 1018.9
20260506041428 54 285 0.0 1.7 0.00 0.21 0.03 94 1018.7
20260506040420 54 298 0.0 1.7 0.00 0.21 0.03 94 1018.6
20260506035431 54 291 0.0 1.7 0.00 0.25 0.03 94 1018.4
20260506034425 54 277 0.0 2.6 0.00 0.25 0.03 94 1018.4
20260506033422 54 296 0.0 1.7 0.00 0.25 0.03 94 1018.2
20260506032417 54 298 0.9 3.5 0.00 0.25 0.03 94 1018.1
20260506031430 54 272 0.9 2.6 0.00 0.25 0.03 93 1017.8
20260506030425 55 272 0.0 1.7 0.00 0.25 0.03 92 1017.7
20260506025422 55 293 0.0 2.6 0.00 0.32 0.03 91 1017.7
20260506024436 56 319 0.0 3.5 0.00 0.32 0.03 92 1017.7
20260506023429 56 266 0.0 4.3 0.00 0.32 0.03 91 1017.5
20260506022424 57 298 0.9 3.5 0.00 0.32 0.03 89 1017.5
20260506021421 58 301 0.0 5.2 0.00 0.32 0.03 87 1017.4
20260506020414 58 272 0.9 4.3 0.00 0.32 0.03 89 1017.1
20260506015446 57 302 1.7 5.2 0.00 0.40 0.03 90 1017.1
20260506014423 57 305 0.9 4.3 0.00 0.40 0.03 89 1017.0
20260506013417 57 308 0.9 6.1 0.00 0.40 0.03 88 1017.0
20260506012432 57 322 2.6 6.1 0.00 0.40 0.03 87 1016.9
20260506011445 57 268 3.5 7.8 0.00 0.40 0.03 85 1016.9
20260506010423 58 318 5.2 8.7 0.00 0.40 0.03 84 1016.9
20260506005415 58 308 4.3 8.7 0.00 0.48 0.03 84 1016.9
20260506004448 59 316 3.5 7.8 0.00 0.48 0.03 83 1016.8
20260506003441 59 312 2.6 7.0 0.00 0.48 0.03 84 1016.7
20260506002419 59 272 4.3 7.0 0.00 0.48 0.03 83 1016.7
20260506001433 60 282 0.9 12.2 0.00 0.48 0.03 82 1016.7
20260506000427 60 297 4.3 11.3 0.00 0.48 0.03 83 1016.6
20260505235438 60 323 4.3 10.4 0.00 0.53 0.03 82 1016.6
20260505234416 61 300 1.7 12.2 0.00 0.53 0.03 84 1016.6
20260505233431 61 319 1.7 7.0 0.00 0.53 0.03 81 1016.7
20260505232424 61 319 3.5 9.6 0.00 0.53 0.03 79 1016.6
20260505231422 61 330 6.1 10.4 0.00 0.53 0.03 79 1016.7
20260505230436 62 251 2.6 8.7 0.00 0.53 0.03 81 1016.5
20260505225428 62 268 3.5 8.7 0.00 0.54 0.03 79 1016.5
20260505224421 62 310 3.5 10.4 0.00 0.54 0.03 81 1016.6
20260505223420 63 296 1.7 8.7 0.00 0.54 0.03 79 1016.7
20260505222433 63 262 2.6 13.0 0.00 0.54 0.03 81 1016.6
20260505221425 63 322 7.0 10.4 0.00 0.54 0.03 78 1016.5
20260505220419 63 307 0.9 7.8 0.00 0.54 0.03 80 1016.6
20260505215437 63 314 4.3 8.7 0.00 0.54 0.03 81 1016.7
20260505214430 62 272 2.6 8.7 0.00 0.54 0.03 81 1016.9
20260505213424 62 326 4.3 9.6 0.00 0.54 0.03 81 1017.0
20260505212417 61 324 5.2 8.7 0.00 0.54 0.03 83 1017.1
20260505211415 61 325 5.2 9.6 0.00 0.54 0.03 82 1017.1
20260505210450 62 327 3.5 7.8 0.00 0.54 0.03 82 1017.1
20260505205422 62 309 2.6 7.0 0.00 0.54 0.03 81 1017.2
20260505204418 61 301 1.7 7.0 0.00 0.54 0.03 83 1017.2
20260505203431 61 274 2.6 7.8 0.00 0.54 0.03 83 1017.1
20260505202425 61 309 2.6 7.0 0.00 0.54 0.03 83 1017.2
20260505201417 61 326 1.7 7.8 0.00 0.54 0.03 83 1017.2
20260505200415 61 292 3.5 9.6 0.00 0.54 0.03 85 1017.3
20260505195426 61 296 4.3 10.4 0.00 0.54 0.03 84 1017.3
20260505194419 61 298 3.5 7.8 0.00 0.54 0.03 85 1017.2
20260505193434 61 320 2.6 7.0 0.00 0.54 0.03 86 1017.2
20260505192432 60 296 2.6 9.6 0.00 0.54 0.03 85 1017.3
20260505191425 60 316 4.3 8.7 0.00 0.54 0.03 86 1017.3
20260505190439 59 298 4.3 7.8 0.00 0.54 0.03 85 1017.3
20260505185430 59 337 5.2 12.2 0.00 0.54 0.03 86 1017.2
20260505184428 59 336 3.5 7.0 0.00 0.54 0.03 86 1017.3
20260505183423 59 337 4.3 9.6 0.00 0.54 0.03 85 1017.2
20260505182416 59 308 3.5 8.7 0.00 0.54 0.03 84 1017.2
20260505181448 58 331 4.3 9.6 0.00 0.54 0.03 84 1017.1
20260505180445 58 324 3.5 7.8 0.00 0.54 0.03 84 1017.1